Weather History for Garrison, ND

Change the Weather History Date:

Saturday, December 22, 2012

  Actual Average Record
Temperature  
Mean Temperature 9 °F -  
Max Temperature 17 °F 20 °F 39 °F (2005)
Min Temperature 1 °F 4 °F -25 °F (2008)
Degree Days  
Heating Degree Days 56    
Month to date heating degree days 1040  
Moisture  
Dew Point 3 °F    
Average Humidity 83    
Maximum Humidity 92    
Minimum Humidity 73    
Precipitation  
Precipitation 0.00 in - - ()
Month to date precipitation 0.59  
Year to date precipitation 16.66  
Sea Level Pressure  
Sea Level Pressure 30.24 in    
Wind  
Wind Speed 9 mph (North)    
Max Wind Speed 15 mph    
Max Gust Speed -    
Averages and records for this station are not official NWS values.
T = Trace of Precipitation, MM = Missing Value Source: NWS Daily Summary

Daily Weather History Graph

Daily Weather History Graph

Search for Another Location

Airport:

Trip Planner

Search our weather history database for the weather conditions in past years. The results will help you decide how hot, cold, wet, or windy it might be!

Date:

Astronomy

Dec. 22, 2012 Rise Set
Actual Time 8:32 AM CST 4:57 PM CST
Civil Twilight 7:55 AM CST 5:33 PM CST
Nautical Twilight 7:16 AM CST 6:12 PM CST
Astronomical Twilight 6:38 AM CST 6:50 PM CST
Moon 1:27 PM CST (12/22) 3:05 AM CST (12/22)
Length of Visible Light 9h 37m
Length of Day
8h 25m
Waxing Gibbous, 74% of the Moon is Illuminated
Dec 22
Waxing Gibbous
Dec 28
Full
Jan 4
Last Quarter
Jan 11
New
Jan 18
First Quarter

Hourly Weather History & Observations

Time (CST) Temp. Windchill Dew Point Humidity Pressure Visibility Wind Dir Wind Speed Gust Speed Precip Events Conditions
12:52 AM 16.0 °F 3.6 °F 12.0 °F 84% 30.09 in - NNW 10.4 mph - N/A   Unknown
1:52 AM 16.0 °F 5.3 °F 12.0 °F 84% 30.11 in - North 8.1 mph - N/A   Unknown
2:52 AM 14.0 °F 2.0 °F 10.0 °F 84% 30.12 in - North 9.2 mph - N/A   Unknown
3:52 AM 12.0 °F -2.7 °F 7.0 °F 80% 30.15 in - NNW 12.7 mph - N/A   Unknown
4:52 AM 8.1 °F -3.2 °F 3.9 °F 83% 30.17 in - North 6.9 mph - N/A   Unknown
5:52 AM 6.1 °F -10.9 °F 1.9 °F 83% 30.21 in - NNW 13.8 mph - N/A   Unknown
6:52 AM 6.1 °F -11.6 °F 1.9 °F 83% 30.22 in - North 15.0 mph - N/A   Unknown
7:52 AM 3.9 °F -6.9 °F 1.0 °F 88% 30.23 in - NNW 5.8 mph - N/A   Unknown
8:52 AM 3.9 °F -9.4 °F -0.0 °F 84% 30.26 in - NW 8.1 mph - N/A   Unknown
9:52 AM 6.1 °F -5.6 °F 1.0 °F 80% 30.27 in - NW 6.9 mph - N/A   Unknown
10:52 AM 9.0 °F -4.2 °F 3.9 °F 80% 30.27 in - North 9.2 mph - N/A   Unknown
11:52 AM 10.0 °F -1.9 °F 3.9 °F 76% 30.27 in - North 8.1 mph - N/A   Unknown
12:52 PM 9.0 °F -3.2 °F 3.0 °F 77% 30.25 in - North 8.1 mph - N/A   Unknown
1:52 PM 9.0 °F -6.6 °F 3.0 °F 77% 30.27 in - North 12.7 mph - N/A   Unknown
2:52 PM 9.0 °F -6.6 °F 1.9 °F 73% 30.28 in - North 12.7 mph - N/A   Unknown
3:52 PM 7.0 °F -4.5 °F 1.0 °F 77% 30.27 in - NNE 6.9 mph - N/A   Unknown
4:52 PM 5.0 °F -5.6 °F -0.0 °F 80% 30.28 in - NNE 5.8 mph - N/A   Unknown
5:52 PM 1.0 °F -6.7 °F -4.0 °F 79% 30.31 in - North 3.5 mph - N/A   Unknown
6:52 PM 5.0 °F -4.1 °F 1.0 °F 84% 30.30 in - NE 4.6 mph - N/A   Unknown
7:52 PM 3.9 °F -3.4 °F 1.0 °F 88% 30.29 in - NE 3.5 mph - N/A   Unknown
8:52 PM 3.0 °F -4.4 °F -0.9 °F 84% 30.29 in - NNE 3.5 mph - N/A   Unknown
9:52 PM 1.9 °F -9.2 °F -0.9 °F 88% 30.30 in - NNE 5.8 mph - N/A   Unknown
10:52 PM 1.9 °F -10.6 °F -0.9 °F 88% 30.29 in - NE 6.9 mph - N/A   Unknown
11:52 PM 3.0 °F -8.0 °F -0.0 °F 87% 30.27 in - ENE 5.8 mph - N/A   Unknown